Time,TemperatureF,DewpointF,PressureIn,WindDirection,WindDirectionDegrees,WindSpeedMPH,WindSpeedGustMPH,Humidity,HourlyPrecipIn,Conditions,Clouds,dailyrainin,SolarRadiationWatts/m^2,SoftwareType,DateUTC
2013-04-20 00:03:00,62.0,59.0,-100.00,South,181,5.0,13.0,91,0.00,,,0.00,0.000000,,2013-04-20 04:03:00,
2013-04-20 00:12:00,62.0,59.0,-100.00,South,181,5.0,13.0,91,0.00,,,0.00,0.000000,,2013-04-20 04:12:00,
2013-04-20 00:23:00,62.0,59.0,-100.00,South,181,5.0,13.0,91,0.00,,,0.00,0.000000,,2013-04-20 04:23:00,
2013-04-20 00:53:00,62.0,60.0,-100.00,South,183,6.0,14.0,93,0.00,,,0.00,0.000000,,2013-04-20 04:53:00,
2013-04-20 01:02:00,62.0,60.0,-100.00,South,183,6.0,14.0,93,0.00,,,0.00,0.000000,,2013-04-20 05:02:00,
2013-04-20 01:12:00,62.0,60.0,-100.00,South,183,6.0,14.0,93,0.00,,,0.00,0.000000,,2013-04-20 05:12:00,
2013-04-20 01:22:00,62.0,60.0,-100.00,South,183,6.0,14.0,93,0.00,,,0.00,0.000000,,2013-04-20 05:22:00,
2013-04-20 01:52:00,60.0,59.0,-100.00,South,181,6.0,17.0,95,0.00,,,0.00,0.000000,,2013-04-20 05:52:00,
2013-04-20 02:02:00,60.0,59.0,-100.00,South,181,6.0,17.0,95,0.00,,,0.00,0.000000,,2013-04-20 06:02:00,
2013-04-20 02:12:00,60.0,59.0,-100.00,South,181,6.0,17.0,95,0.00,,,0.00,0.000000,,2013-04-20 06:12:00,
2013-04-20 02:21:00,60.0,59.0,-100.00,South,181,6.0,17.0,95,0.00,,,0.00,0.000000,,2013-04-20 06:21:00,
2013-04-20 02:52:00,58.0,57.0,-100.00,SSE,148,2.0,8.0,98,0.07,,,0.07,0.000000,,2013-04-20 06:52:00,
2013-04-20 03:02:00,58.0,57.0,-100.00,SSE,148,2.0,8.0,98,0.07,,,0.07,0.000000,,2013-04-20 07:02:00,
2013-04-20 03:11:00,58.0,57.0,-100.00,SSE,148,2.0,8.0,98,0.07,,,0.07,0.000000,,2013-04-20 07:11:00,
2013-04-20 03:22:00,58.0,57.0,-100.00,SSE,148,2.0,8.0,98,0.07,,,0.07,0.000000,,2013-04-20 07:22:00,
2013-04-20 03:52:00,55.0,55.0,-100.00,SE,124,3.0,8.0,99,0.01,,,0.08,0.000000,,2013-04-20 07:52:00,
2013-04-20 04:02:00,55.0,55.0,-100.00,SE,124,3.0,8.0,99,0.01,,,0.08,0.000000,,2013-04-20 08:02:00,
2013-04-20 04:11:00,55.0,55.0,-100.00,SE,124,3.0,8.0,99,0.01,,,0.08,0.000000,,2013-04-20 08:11:00,
2013-04-20 04:21:00,55.0,55.0,-100.00,SE,124,3.0,8.0,99,0.01,,,0.08,0.000000,,2013-04-20 08:21:00,
2013-04-20 04:52:00,56.0,54.0,-100.00,WNW,294,7.0,16.0,94,0.02,,,0.10,0.000000,,2013-04-20 08:52:00,
2013-04-20 05:02:00,56.0,54.0,-100.00,WNW,294,7.0,16.0,94,0.02,,,0.10,0.000000,,2013-04-20 09:02:00,
2013-04-20 05:12:00,56.0,54.0,-100.00,WNW,294,7.0,16.0,94,0.02,,,0.10,0.000000,,2013-04-20 09:12:00,
2013-04-20 05:22:00,56.0,54.0,-100.00,WNW,294,7.0,16.0,94,0.02,,,0.10,0.000000,,2013-04-20 09:22:00,
2013-04-20 05:53:00,52.0,49.0,-100.00,NW,315,5.0,19.0,89,0.01,,,0.11,0.000000,,2013-04-20 09:53:00,
2013-04-20 06:03:00,52.0,49.0,-100.00,NW,315,5.0,19.0,89,0.01,,,0.11,0.000000,,2013-04-20 10:03:00,
2013-04-20 06:13:00,52.0,49.0,-100.00,NW,315,5.0,19.0,89,0.01,,,0.11,0.000000,,2013-04-20 10:13:00,
2013-04-20 06:23:00,52.0,49.0,-100.00,NW,315,5.0,19.0,89,0.01,,,0.11,0.000000,,2013-04-20 10:23:00,
2013-04-20 06:53:00,48.0,46.0,-100.00,NW,316,2.0,9.0,94,0.11,,,0.22,3.000000,,2013-04-20 10:53:00,
2013-04-20 07:03:00,48.0,46.0,-100.00,NW,316,2.0,9.0,94,0.11,,,0.22,3.000000,,2013-04-20 11:03:00,
2013-04-20 07:12:00,48.0,46.0,-100.00,NW,316,2.0,9.0,94,0.11,,,0.22,3.000000,,2013-04-20 11:12:00,
2013-04-20 07:23:00,48.0,46.0,-100.00,NW,316,2.0,9.0,94,0.11,,,0.22,3.000000,,2013-04-20 11:23:00,
2013-04-20 07:53:00,45.0,43.0,-100.00,WNW,289,4.0,15.0,91,0.04,,,0.26,17.000000,,2013-04-20 11:53:00,
2013-04-20 08:02:00,45.0,43.0,-100.00,WNW,289,4.0,15.0,91,0.04,,,0.26,17.000000,,2013-04-20 12:02:00,
2013-04-20 08:11:00,45.0,43.0,-100.00,WNW,289,4.0,15.0,91,0.04,,,0.26,17.000000,,2013-04-20 12:11:00,
2013-04-20 08:23:00,45.0,43.0,-100.00,WNW,289,4.0,15.0,91,0.04,,,0.26,17.000000,,2013-04-20 12:23:00,
2013-04-20 08:52:00,46.0,44.0,-100.00,West,264,5.0,13.0,92,0.02,,,0.28,45.000000,,2013-04-20 12:52:00,
2013-04-20 09:02:00,46.0,44.0,-100.00,West,264,5.0,13.0,92,0.02,,,0.28,45.000000,,2013-04-20 13:02:00,
2013-04-20 09:11:00,46.0,44.0,-100.00,West,264,5.0,13.0,92,0.02,,,0.28,45.000000,,2013-04-20 13:11:00,
2013-04-20 09:22:00,46.0,44.0,-100.00,West,264,5.0,13.0,92,0.02,,,0.28,45.000000,,2013-04-20 13:22:00,
2013-04-20 09:52:00,47.0,41.0,-100.00,West,277,5.0,16.0,78,0.00,,,0.28,111.000000,,2013-04-20 13:52:00,
2013-04-20 10:02:00,47.0,41.0,-100.00,West,277,5.0,16.0,78,0.00,,,0.28,111.000000,,2013-04-20 14:02:00,
2013-04-20 10:11:00,47.0,41.0,-100.00,West,277,5.0,16.0,78,0.00,,,0.28,111.000000,,2013-04-20 14:11:00,
2013-04-20 10:21:00,47.0,41.0,-100.00,West,277,5.0,16.0,78,0.00,,,0.28,111.000000,,2013-04-20 14:21:00,
2013-04-20 10:52:00,50.0,39.0,-100.00,WNW,290,4.0,14.0,67,0.00,,,0.28,263.000000,,2013-04-20 14:52:00,
2013-04-20 11:02:00,50.0,39.0,-100.00,WNW,290,4.0,14.0,67,0.00,,,0.28,263.000000,,2013-04-20 15:02:00,
2013-04-20 11:12:00,50.0,39.0,-100.00,WNW,290,4.0,14.0,67,0.00,,,0.28,263.000000,,2013-04-20 15:12:00,
2013-04-20 11:21:00,50.0,39.0,-100.00,WNW,290,4.0,14.0,67,0.00,,,0.28,263.000000,,2013-04-20 15:21:00,
2013-04-20 11:53:00,55.0,36.0,-100.00,West,277,10.0,21.0,48,0.00,,,0.28,556.000000,,2013-04-20 15:53:00,
2013-04-20 12:03:00,55.0,36.0,-100.00,West,277,10.0,21.0,48,0.00,,,0.28,556.000000,,2013-04-20 16:03:00,
2013-04-20 12:12:00,55.0,36.0,-100.00,West,277,10.0,21.0,48,0.00,,,0.28,556.000000,,2013-04-20 16:12:00,
2013-04-20 12:23:00,55.0,36.0,-100.00,West,277,10.0,21.0,48,0.00,,,0.28,556.000000,,2013-04-20 16:23:00,
2013-04-20 12:53:00,57.0,34.0,-100.00,NW,313,7.0,24.0,42,0.00,,,0.28,495.000000,,2013-04-20 16:53:00,
2013-04-20 13:03:00,57.0,34.0,-100.00,NW,313,7.0,24.0,42,0.00,,,0.28,495.000000,,2013-04-20 17:03:00,
2013-04-20 13:12:00,57.0,34.0,-100.00,NW,313,7.0,24.0,42,0.00,,,0.28,495.000000,,2013-04-20 17:12:00,
2013-04-20 13:23:00,57.0,34.0,-100.00,NW,313,7.0,24.0,42,0.00,,,0.28,495.000000,,2013-04-20 17:23:00,
2013-04-20 13:52:00,58.0,31.0,-100.00,WNW,302,9.0,25.0,36,0.00,,,0.28,564.000000,,2013-04-20 17:52:00,
2013-04-20 14:02:00,58.0,31.0,-100.00,WNW,302,9.0,25.0,36,0.00,,,0.28,564.000000,,2013-04-20 18:02:00,
2013-04-20 14:13:00,58.0,31.0,-100.00,WNW,302,9.0,25.0,36,0.00,,,0.28,564.000000,,2013-04-20 18:13:00,
2013-04-20 14:22:00,58.0,31.0,-100.00,WNW,302,9.0,25.0,36,0.00,,,0.28,564.000000,,2013-04-20 18:22:00,
2013-04-20 14:53:00,57.0,29.0,-100.00,WNW,287,10.0,30.0,34,0.00,,,0.28,501.000000,,2013-04-20 18:53:00,
2013-04-20 15:02:00,57.0,29.0,-100.00,WNW,287,10.0,30.0,34,0.00,,,0.28,501.000000,,2013-04-20 19:02:00,
2013-04-20 15:11:00,57.0,29.0,-100.00,WNW,287,10.0,30.0,34,0.00,,,0.28,501.000000,,2013-04-20 19:11:00,
2013-04-20 15:22:00,57.0,29.0,-100.00,WNW,287,10.0,30.0,34,0.00,,,0.28,501.000000,,2013-04-20 19:22:00,
2013-04-20 15:52:00,57.0,27.0,-100.00,West,281,12.0,30.0,32,0.00,,,0.28,433.000000,,2013-04-20 19:52:00,
2013-04-20 16:02:00,57.0,27.0,-100.00,West,281,12.0,30.0,32,0.00,,,0.28,433.000000,,2013-04-20 20:02:00,
2013-04-20 16:12:00,57.0,27.0,-100.00,West,281,12.0,30.0,32,0.00,,,0.28,433.000000,,2013-04-20 20:12:00,
2013-04-20 16:22:00,57.0,27.0,-100.00,West,281,12.0,30.0,32,0.00,,,0.28,433.000000,,2013-04-20 20:22:00,
2013-04-20 16:52:00,56.0,27.0,-100.00,West,274,12.0,29.0,32,0.00,,,0.28,388.000000,,2013-04-20 20:52:00,
2013-04-20 17:02:00,56.0,27.0,-100.00,West,274,12.0,29.0,32,0.00,,,0.28,388.000000,,2013-04-20 21:02:00,
2013-04-20 17:12:00,56.0,27.0,-100.00,West,274,12.0,29.0,32,0.00,,,0.28,388.000000,,2013-04-20 21:12:00,
2013-04-20 17:22:00,56.0,27.0,-100.00,West,274,12.0,29.0,32,0.00,,,0.28,388.000000,,2013-04-20 21:22:00,
2013-04-20 17:53:00,57.0,29.0,-100.00,WNW,300,7.0,30.0,34,0.00,,,0.28,231.000000,,2013-04-20 21:53:00,
2013-04-20 18:03:00,57.0,29.0,-100.00,WNW,300,7.0,30.0,34,0.00,,,0.28,231.000000,,2013-04-20 22:03:00,
2013-04-20 18:13:00,57.0,29.0,-100.00,WNW,300,7.0,30.0,34,0.00,,,0.28,231.000000,,2013-04-20 22:13:00,
2013-04-20 18:23:00,57.0,29.0,-100.00,WNW,300,7.0,30.0,34,0.00,,,0.28,231.000000,,2013-04-20 22:23:00,
2013-04-20 18:53:00,55.0,23.0,-100.00,WNW,294,8.0,26.0,29,0.00,,,0.28,228.000000,,2013-04-20 22:53:00,
2013-04-20 19:02:00,55.0,23.0,-100.00,WNW,294,8.0,26.0,29,0.00,,,0.28,228.000000,,2013-04-20 23:02:00,
2013-04-20 19:12:00,55.0,23.0,-100.00,WNW,294,8.0,26.0,29,0.00,,,0.28,228.000000,,2013-04-20 23:12:00,
2013-04-20 19:22:00,55.0,23.0,-100.00,WNW,294,8.0,26.0,29,0.00,,,0.28,228.000000,,2013-04-20 23:22:00,
2013-04-20 19:53:00,52.0,23.0,-100.00,WNW,287,6.0,23.0,32,0.00,,,0.28,48.000000,,2013-04-20 23:53:00,
2013-04-20 20:01:00,52.0,23.0,-100.00,WNW,287,6.0,23.0,32,0.00,,,0.28,48.000000,,2013-04-21 00:01:00,
2013-04-20 20:12:00,52.0,23.0,-100.00,WNW,287,6.0,23.0,32,0.00,,,0.28,48.000000,,2013-04-21 00:12:00,
2013-04-20 20:22:00,52.0,23.0,-100.00,WNW,287,6.0,23.0,32,0.00,,,0.28,48.000000,,2013-04-21 00:22:00,
2013-04-20 20:52:00,50.0,23.0,-100.00,WNW,292,4.0,17.0,35,0.00,,,0.28,3.000000,,2013-04-21 00:52:00,
2013-04-20 21:01:00,50.0,23.0,-100.00,WNW,292,4.0,17.0,35,0.00,,,0.28,3.000000,,2013-04-21 01:01:00,
2013-04-20 21:12:00,50.0,23.0,-100.00,WNW,292,4.0,17.0,35,0.00,,,0.28,3.000000,,2013-04-21 01:12:00,
2013-04-20 21:22:00,50.0,23.0,-100.00,WNW,292,4.0,17.0,35,0.00,,,0.28,3.000000,,2013-04-21 01:22:00,
2013-04-20 21:52:00,48.0,20.0,-100.00,WNW,289,5.0,17.0,33,0.00,,,0.28,0.000000,,2013-04-21 01:52:00,
2013-04-20 22:02:00,48.0,20.0,-100.00,WNW,289,5.0,17.0,33,0.00,,,0.28,0.000000,,2013-04-21 02:02:00,
2013-04-20 22:11:00,48.0,20.0,-100.00,WNW,289,5.0,17.0,33,0.00,,,0.28,0.000000,,2013-04-21 02:11:00,
2013-04-20 22:22:00,48.0,20.0,-100.00,WNW,289,5.0,17.0,33,0.00,,,0.28,0.000000,,2013-04-21 02:22:00,
2013-04-20 22:52:00,46.0,19.0,-100.00,NW,304,5.0,16.0,34,0.00,,,0.28,0.000000,,2013-04-21 02:52:00,
2013-04-20 23:02:00,46.0,19.0,-100.00,NW,304,5.0,16.0,34,0.00,,,0.28,0.000000,,2013-04-21 03:02:00,
2013-04-20 23:11:00,46.0,19.0,-100.00,NW,304,5.0,16.0,34,0.00,,,0.28,0.000000,,2013-04-21 03:11:00,
2013-04-20 23:22:00,46.0,19.0,-100.00,NW,304,5.0,16.0,34,0.00,,,0.28,0.000000,,2013-04-21 03:22:00,
2013-04-20 23:53:00,44.0,17.0,-100.00,NW,311,4.0,19.0,34,0.00,,,0.28,0.000000,,2013-04-21 03:53:00,